[[{"header":{"parameterUnit":"m.s-1","parameterCategory":1,"la1":30.2991,"la2":30.254,"lo1":-89.0895,"lo2":-89.0444,"dy":0.0017,"dx":0.0017,"nx":28,"ny":28,"refTime":"2025-03-26T03:00:00:Z","depth":0,"parameterNumber":2,"parameterNumberName":"U-component_of_WINDS"},"data":[0,0,0,0,0,0,0,0,0,0,0,0,0,0,0,0,0,0,0,0,0,0,0,0,0,0,0,0,0,0,0,0,0,0,0,0,0,0,0,0,0,0,0,0,0,0,0,0,0,0,0,0,0,0,0,0,0,0,2.7862,2.7864,0,2.8068,2.8071,2.8073,2.8099,2.8097,2.8095,2.8093,2.8309,2.8316,2.8324,0,0,0,0,0,0,0,0,0,0,0,0,0,2.7494,2.75,2.7861,2.7864,2.7867,2.8068,2.8071,2.8074,2.8099,2.8097,2.8094,2.8092,2.8306,2.8315,2.8324,0,0,0,0,0,0,0,0,0,0,0,0,0,2.7672,2.7502,2.7861,2.7903,2.7909,2.8067,2.8071,2.8075,2.81,2.8097,2.8094,2.8091,2.8303,2.8314,2.8326,2.8457,0,0,2.836,2.8365,0,0,0,0,0,0,0,0,2.7662,2.7686,2.7895,2.7901,2.7908,2.8055,2.802,2.8203,2.8101,2.8028,2.8093,2.8089,2.8227,2.8244,2.829,2.8467,2.8476,2.8361,2.8368,2.8373,2.8377,0,0,0,0,0,0,0,2.765,2.7677,2.7943,2.7898,2.7906,2.7914,2.7936,2.8055,2.8142,2.8034,2.8036,2.806,2.823,2.8279,2.8295,2.8479,2.8361,2.8371,2.8378,2.8383,2.8776,2.878,0,0,0,0,0,0,2.7629,2.7666,2.7937,2.795,2.7775,2.7923,2.7948,2.8011,2.8141,2.8157,2.8062,2.806,2.8261,2.8282,2.8303,2.8466,2.8373,2.8384,2.8391,2.8773,2.8777,2.8781,0,0,0,0,0,0,2.7621,2.7653,2.7929,2.7809,2.7845,2.7933,2.8003,2.8016,2.8065,2.8162,2.8178,2.8096,2.8259,2.8287,2.8418,2.8474,2.8389,2.84,2.8769,2.8774,2.8779,2.8793,0,0,0,0,0,0,2.761,2.765,2.7699,2.781,2.7851,2.8039,2.8006,2.8023,2.8084,2.8084,2.8198,2.8214,2.8259,2.8401,2.843,2.8488,2.8408,2.8764,2.8771,2.8777,2.8788,2.8798,2.8807,0,0,0,0,0,2.7597,2.7695,2.7701,2.7734,2.7914,2.8042,2.8066,2.8114,2.8089,2.814,2.8203,2.8211,2.8463,2.8414,2.8447,2.8509,2.8761,2.8769,2.8777,2.8783,2.8796,2.8806,0,0,0,0,0,0,2.759,2.771,2.7719,2.7855,2.7938,2.8046,2.8112,2.8126,2.8219,2.8214,2.8272,2.8298,2.8427,2.8482,2.8425,2.8644,2.861,2.8625,2.8604,2.8616,2.8626,2.861,2.8418,0,0,0,0,0,2.7604,2.7696,2.7797,2.7908,2.7949,2.8024,2.8081,2.8111,2.82,2.8236,2.8308,2.8395,2.8494,2.8558,2.8655,2.8796,2.8822,2.8855,2.8864,2.8872,2.8884,2.8964,2.898,2.8808,2.8808,2.8807,0,0,2.7634,2.7712,2.7767,2.7909,2.7977,2.8073,2.8053,2.8155,2.8228,2.8252,2.838,2.8437,2.8538,2.8675,2.8739,2.8724,2.8938,2.8882,2.8887,2.8896,2.8974,2.899,2.9005,2.8813,2.8812,2.8811,0,0,2.7739,2.7806,2.7906,2.7975,2.8078,2.8127,2.8151,2.8258,2.8295,2.8425,2.8446,2.8534,2.8703,2.8774,2.8833,2.8966,2.8978,2.8996,2.9046,2.9123,2.9137,2.9149,2.9198,2.9214,2.9008,2.9008,2.9008,0,2.7764,2.7908,2.7957,2.8059,2.8121,2.8147,2.825,2.8314,2.8444,2.8487,2.8469,2.8683,2.8753,2.8908,2.894,2.8987,2.9017,2.8983,2.9131,2.9144,2.9156,2.9203,2.9221,2.901,2.901,2.901,2.901,0,2.7935,2.8035,2.8104,2.8227,2.8298,2.8399,2.8465,2.8531,2.8556,2.8607,2.874,2.8825,2.894,2.8979,2.9004,2.9138,2.9126,2.9119,2.9085,2.9173,2.9218,2.9237,2.9012,2.9012,2.9011,2.9011,0,0,2.804,2.8189,2.8214,2.8271,2.8387,2.8466,2.857,2.8681,2.8737,2.8826,2.8916,2.9059,2.9053,2.912,2.9153,2.9221,2.9323,2.9206,2.9209,2.9225,2.9477,2.9482,2.9502,2.9331,2.9335,2.9338,2.9469,0,2.8158,2.8343,2.839,2.8548,2.8641,2.8668,2.8759,2.8841,2.8892,2.8981,2.9038,2.9139,2.9123,2.9164,2.9232,2.9296,2.9374,2.9287,2.9416,2.942,2.939,2.9525,2.9531,2.965,2.9487,2.949,2.9492,0,2.8321,2.8412,2.8579,2.8683,2.8725,2.8805,2.8912,2.8995,2.909,2.9123,2.9197,2.9225,2.9336,2.9297,2.9452,2.9392,2.9448,2.9487,2.9493,2.9507,2.9461,2.9543,2.969,2.9708,2.952,2.9518,2.9516,0,2.8382,2.8547,2.8668,2.8716,2.8841,2.8897,2.8952,2.9043,2.9107,2.9201,2.9244,2.935,2.9408,2.949,2.9546,2.9512,2.9697,2.9662,2.9729,2.9727,2.9766,2.9763,2.9924,2.9802,2.9802,2.9801,2.9801,0,2.8509,2.861,2.8697,2.8771,2.8886,2.8941,2.9053,2.911,2.9191,2.9278,2.9308,2.939,2.9459,2.9551,2.9596,2.9718,2.9744,2.9774,2.9785,2.9772,2.9768,2.9809,2.9802,2.9806,2.9805,2.9804,2.9803,0,2.8596,2.8658,2.8792,2.8899,2.8929,2.9009,2.9102,2.9176,2.9229,2.9339,2.9368,2.9451,2.9561,2.9625,2.9764,2.9794,2.993,2.9937,2.9897,2.9902,2.9965,2.9958,3.0158,3.0187,3.0046,3.0047,3.0048,0,2.8673,2.8751,2.8867,2.8927,2.8982,2.9079,2.9144,2.9202,2.927,2.9384,2.9445,2.9556,2.9648,2.9822,2.9896,3.0002,3.0012,3.0075,3.0028,3.0013,3.0014,3.0008,3.0017,3.0083,3.0084,3.0085,3.0086,0,2.8804,2.8831,2.8923,2.9027,2.9104,2.9189,2.9274,2.9322,2.9394,2.9469,2.958,2.9652,2.9793,2.9903,3.0016,3.0075,3.0093,3.01,3.0121,3.0108,3.0082,3.0097,2.9919,3.0095,3.0094,3.0093,3.0093,3.0092,2.8889,2.896,2.9052,2.9155,2.9224,2.9303,2.9378,2.944,2.9534,2.9653,2.9682,2.9799,2.9894,3.0047,3.0108,3.0202,3.0192,3.0222,3.023,3.0237,3.0239,3.0067,3.0223,3.0223,3.0223,3.0223,3.0223,0,2.9021,2.9082,2.9176,2.9293,2.9374,2.9383,2.9477,2.9545,2.9648,2.9733,2.9823,2.9952,3.006,3.0142,3.0253,3.0313,3.0324,3.034,3.0336,3.0349,3.0241,3.0212,3.0329,3.0329,3.0329,3.0329,3.0329,3.0329,2.9099,2.922,2.9258,2.9415,2.9476,2.959,2.9644,2.9717,2.9786,2.9928,3.0017,3.007,3.0155,3.0272,3.0372,3.0394,3.0433,3.0448,3.0471,3.0368,3.0357,3.0346,3.0319,3.0456,3.0456,3.0571,3.0572,3.0573]},{"header":{"parameterUnit":"m.s-1","parameterCategory":1,"la1":30.2991,"la2":30.254,"lo1":-89.0895,"lo2":-89.0444,"dy":0.0017,"dx":0.0017,"nx":28,"ny":28,"refTime":"2025-03-26T03:00:00:Z","depth":0,"parameterNumber":3,"parameterNumberName":"V-component_of_WINDS"},"data":[0,0,0,0,0,0,0,0,0,0,0,0,0,0,0,0,0,0,0,0,0,0,0,0,0,0,0,0,0,0,0,0,0,0,0,0,0,0,0,0,0,0,0,0,0,0,0,0,0,0,0,0,0,0,0,0,0,0,-0.003,-0.0031,0,-0.0118,-0.0119,-0.012,-0.0181,-0.0182,-0.0182,-0.0183,-0.0275,-0.0277,-0.0279,0,0,0,0,0,0,0,0,0,0,0,0,0,0.0084,0.0082,-0.003,-0.0031,-0.0032,-0.0118,-0.0119,-0.0121,-0.0181,-0.0182,-0.0182,-0.0183,-0.0274,-0.0277,-0.0279,0,0,0,0,0,0,0,0,0,0,0,0,0,0.0019,0.0081,-0.0029,-0.0072,-0.0077,-0.0118,-0.0119,-0.0121,-0.0181,-0.0182,-0.0182,-0.0183,-0.0274,-0.0277,-0.028,-0.0285,0,0,-0.0289,-0.029,0,0,0,0,0,0,0,0,0.0023,0.0015,-0.0065,-0.007,-0.0075,-0.0139,-0.0113,-0.0176,-0.0181,-0.0142,-0.0183,-0.0183,-0.0229,-0.0236,-0.0251,-0.0289,-0.0293,-0.0289,-0.0291,-0.0292,-0.0293,0,0,0,0,0,0,0,0.0027,0.0018,-0.0065,-0.0066,-0.0072,-0.0088,-0.0098,-0.0125,-0.0181,-0.0145,-0.015,-0.0159,-0.0232,-0.0248,-0.0254,-0.0295,-0.0289,-0.0292,-0.0294,-0.0295,-0.0343,-0.0343,0,0,0,0,0,0,0.0039,0.0022,-0.0062,-0.0067,-0.0027,-0.009,-0.0101,-0.0118,-0.0181,-0.0191,-0.0159,-0.0162,-0.0243,-0.025,-0.0257,-0.0269,-0.0292,-0.0295,-0.0297,-0.0344,-0.0343,-0.0343,0,0,0,0,0,0,0.0041,0.0032,-0.0058,-0.0024,-0.0037,-0.0091,-0.011,-0.0119,-0.0135,-0.0191,-0.0201,-0.0165,-0.0244,-0.0253,-0.0278,-0.0273,-0.0297,-0.0299,-0.0345,-0.0344,-0.0343,-0.0291,0,0,0,0,0,0,0.0045,0.0033,0.0031,-0.0023,-0.0038,-0.0076,-0.0109,-0.0121,-0.014,-0.0145,-0.0199,-0.0209,-0.0245,-0.0273,-0.0281,-0.0278,-0.0302,-0.0345,-0.0344,-0.0343,-0.0293,-0.0288,-0.0284,0,0,0,0,0,0.0049,0.005,0.0032,0.0022,-0.0041,-0.0076,-0.0084,-0.0125,-0.014,-0.0142,-0.0178,-0.0207,-0.0272,-0.0275,-0.0285,-0.0282,-0.0346,-0.0344,-0.0343,-0.0295,-0.0289,-0.0284,0,0,0,0,0,0,0.0106,0.0042,0.0021,0.0004,-0.003,-0.0086,-0.0091,-0.0117,-0.0148,-0.0152,-0.0202,-0.0214,-0.0234,-0.0261,-0.0262,-0.0291,-0.0313,-0.0313,-0.0273,-0.0268,-0.0263,-0.0256,-0.0304,0,0,0,0,0,0.0117,0.0095,0.0039,0.0029,0.0013,-0.0035,-0.0052,-0.0081,-0.0118,-0.0133,-0.0171,-0.0206,-0.0235,-0.0253,-0.0282,-0.0298,-0.0311,-0.0301,-0.0296,-0.0292,-0.0292,-0.0303,-0.03,-0.0339,-0.0339,-0.0339,0,0,0.0138,0.01,0.009,0.004,0.001,-0.0012,-0.0047,-0.0069,-0.0087,-0.0137,-0.0162,-0.0191,-0.0235,-0.0255,-0.0266,-0.0278,-0.0284,-0.0291,-0.0287,-0.0289,-0.0302,-0.0298,-0.0295,-0.0338,-0.0338,-0.0338,0,0,0.0166,0.0135,0.0123,0.0094,0.005,0.0017,0.0014,-0.0038,-0.0059,-0.0086,-0.0124,-0.0146,-0.0194,-0.0224,-0.0245,-0.023,-0.0258,-0.0239,-0.0214,-0.0225,-0.0222,-0.0219,-0.0215,-0.0212,-0.0238,-0.0238,-0.0238,0,0.0198,0.0164,0.012,0.0101,0.0079,0.0033,0.002,-0.0007,-0.0058,-0.0073,-0.0085,-0.0148,-0.018,-0.0209,-0.0205,-0.0221,-0.0226,-0.0232,-0.0219,-0.0217,-0.0215,-0.0211,-0.0209,-0.0236,-0.0236,-0.0236,-0.0236,0,0.0205,0.0182,0.0177,0.0129,0.0107,0.0091,0.0043,0.0026,-0.0001,-0.0033,-0.006,-0.0101,-0.014,-0.0149,-0.0176,-0.0182,-0.0188,-0.0209,-0.0231,-0.0208,-0.0205,-0.0204,-0.0232,-0.0233,-0.0233,-0.0234,0,0,0.0267,0.0194,0.0193,0.017,0.0117,0.0098,0.0079,0.0041,0.0027,-0.0008,-0.0026,-0.0066,-0.0087,-0.0111,-0.0142,-0.0151,-0.0138,-0.0171,-0.0173,-0.0164,-0.0148,-0.0131,-0.0129,-0.0157,-0.0157,-0.0156,-0.0144,0,0.0287,0.0251,0.0211,0.0188,0.0166,0.0121,0.0103,0.0069,0.0038,0.0013,-0.0022,-0.0049,-0.0074,-0.0089,-0.01,-0.0137,-0.0135,-0.0138,-0.0175,-0.0176,-0.0162,-0.0127,-0.011,-0.0096,-0.0143,-0.0143,-0.0143,0,0.0305,0.0273,0.0249,0.0197,0.0186,0.0172,0.0133,0.011,0.0069,0.0047,0.002,-0.0014,-0.0038,-0.0057,-0.0092,-0.0093,-0.0111,-0.0131,-0.0132,-0.0137,-0.0158,-0.0132,-0.0093,-0.0091,-0.0142,-0.0142,-0.0142,0,0.0352,0.0303,0.0282,0.0263,0.0203,0.0193,0.0167,0.0125,0.0105,0.0071,0.0057,0.002,-0.0,-0.0028,-0.0071,-0.0081,-0.0101,-0.0124,-0.0121,-0.012,-0.0123,-0.0122,-0.0087,-0.0134,-0.0134,-0.0134,-0.0134,0,0.0379,0.0365,0.0302,0.0289,0.0272,0.0225,0.021,0.0179,0.0142,0.0122,0.008,0.0061,0.0006,-0.002,-0.0054,-0.0078,-0.0086,-0.0106,-0.0114,-0.0102,-0.0099,-0.0114,-0.0116,-0.0133,-0.0133,-0.0134,-0.0134,0,0.0429,0.0386,0.036,0.0304,0.029,0.028,0.0231,0.0216,0.0183,0.0157,0.0148,0.0095,0.0063,0.0017,-0.0029,-0.0052,-0.0072,-0.0086,-0.0057,-0.0063,-0.0057,-0.0057,-0.003,-0.0029,-0.0076,-0.0075,-0.0075,0,0.0449,0.0437,0.038,0.0364,0.0339,0.0313,0.0292,0.0245,0.0224,0.0175,0.0166,0.013,0.0099,0.0049,0.0006,-0.0031,-0.0046,-0.0034,-0.0052,-0.0039,-0.0047,-0.0046,-0.0047,-0.003,-0.0029,-0.0028,-0.0028,0,0.0488,0.0467,0.0438,0.0402,0.0378,0.0347,0.0314,0.0303,0.0248,0.0227,0.0193,0.0169,0.0121,0.0086,0.0043,0.0015,-0.0016,-0.0022,-0.0023,-0.0011,0.0006,-0.0004,-0.0046,-0.0022,-0.0023,-0.0023,-0.0024,-0.0024,0.0522,0.051,0.0468,0.0437,0.0408,0.0377,0.036,0.0324,0.0296,0.0254,0.0227,0.0195,0.0152,0.0092,0.0065,0.0037,0.0025,0.0023,0.0023,0.0023,0.0027,0.0011,0.0029,0.0029,0.0029,0.0029,0.0029,0,0.0559,0.053,0.0502,0.0457,0.0433,0.0406,0.0368,0.0349,0.0321,0.0284,0.0254,0.0215,0.018,0.0134,0.0095,0.0082,0.0067,0.0073,0.0074,0.0068,0.0041,0.0046,0.0086,0.0086,0.0086,0.0086,0.0086,0.0086,0.0575,0.0553,0.0527,0.0488,0.0458,0.0427,0.0407,0.0378,0.0348,0.0307,0.0278,0.0248,0.0206,0.0164,0.013,0.0117,0.0105,0.0116,0.0099,0.0075,0.007,0.0065,0.0069,0.0114,0.0114,0.0127,0.0128,0.0128]}]]